When you browse on this site, cookies collect data to enhance your experience and personalize the content and advertising you see.
Visit our Privacy Policy to learn more. By continuing to use the site, you agree to this use of cookies and data.
  • în România
  • Lista ţărilor
  • Pe 7 zile
  • Temperatura apei
  • Hartă satelitară
  • Meteo pe hartă
  • Widget-uri
  • user-avatar
    Intrare

    Meteo pe oră la Cyklady

    Astăzi, 24 Martie, Duminică

    Timp Temperatura Precipitaţii Vânt Presiune Umiditate
    00:00 +5°C° 0 mm 2 m/s 684 mmHg 73%
    01:00 +5°C° 0 mm 2 m/s 684 mmHg 72%
    02:00 +4°C° 0 mm 2 m/s 684 mmHg 73%
    03:00 +4°C° 0 mm 2 m/s 684 mmHg 74%
    04:00 +4°C° 0 mm 2 m/s 684 mmHg 75%
    05:00 +5°C° 0 mm 2 m/s 684 mmHg 74%
    06:00 +6°C° 0 mm 2 m/s 685 mmHg 73%
    07:00 +7°C° 0 mm 2 m/s 685 mmHg 73%
    08:00 +9°C° 0 mm 2 m/s 686 mmHg 66%
    09:00 +12°C° 0 mm 1 m/s 686 mmHg 59%
    10:00 +14°C° 0 mm 1 m/s 687 mmHg 52%
    11:00 +14°C° 0 mm 1 m/s 687 mmHg 52%
    12:00 +14°C° 0 mm 2 m/s 687 mmHg 53%
    13:00 +14°C° 0 mm 2 m/s 686 mmHg 54%
    14:00 +14°C° 0.1 mm 2 m/s 686 mmHg 56%
    15:00 +13°C° 0.1 mm 2 m/s 686 mmHg 58%
    16:00 +13°C° 0.1 mm 1 m/s 685 mmHg 61%
    17:00 +11°C° 0 mm 1 m/s 685 mmHg 67%
    18:00 +9°C° 0 mm 1 m/s 685 mmHg 73%
    19:00 +7°C° 0 mm 1 m/s 684 mmHg 79%
    20:00 +7°C° 0 mm 1 m/s 684 mmHg 79%
    21:00 +7°C° 0 mm 1 m/s 684 mmHg 79%
    22:00 +6°C° 0 mm 1 m/s 684 mmHg 78%
    23:00 +6°C° 0 mm 1 m/s 684 mmHg 76%

    Mâine, 25 Martie, Luni

    Timp Temperatura Precipitaţii Vânt Presiune Umiditate
    00:00 +6°C° 0 mm 1 m/s 684 mmHg 74%
    01:00 +4°C° 0 mm 2 m/s 684 mmHg 72%
    02:00 +4°C° 0 mm 2 m/s 683 mmHg 69%
    03:00 +5°C° 0 mm 1 m/s 683 mmHg 67%
    04:00 +5°C° 0 mm 1 m/s 683 mmHg 65%
    05:00 +6°C° 0 mm 1 m/s 683 mmHg 63%
    06:00 +7°C° 0 mm 1 m/s 683 mmHg 61%
    07:00 +8°C° 0 mm 1 m/s 683 mmHg 59%
    08:00 +11°C° 0 mm 1 m/s 684 mmHg 53%
    09:00 +13°C° 0 mm 1 m/s 684 mmHg 47%
    10:00 +15°C° 0 mm 1 m/s 685 mmHg 41%
    11:00 +16°C° 0 mm 2 m/s 684 mmHg 41%
    12:00 +16°C° 0 mm 2 m/s 684 mmHg 41%
    13:00 +17°C° 0 mm 2 m/s 683 mmHg 41%
    14:00 +16°C° 0 mm 2 m/s 683 mmHg 46%
    15:00 +15°C° 0 mm 2 m/s 682 mmHg 50%
    16:00 +14°C° 0 mm 2 m/s 682 mmHg 55%
    17:00 +12°C° 0 mm 2 m/s 681 mmHg 66%
    18:00 +9°C° 0 mm 2 m/s 681 mmHg 77%
    19:00 +8°C° 0 mm 1 m/s 680 mmHg 88%
    20:00 +7°C° 0 mm 1 m/s 680 mmHg 89%
    21:00 +7°C° 0 mm 1 m/s 680 mmHg 90%
    22:00 +7°C° 0 mm 1 m/s 680 mmHg 92%
    23:00 +6°C° 0 mm 1 m/s 679 mmHg 92%

    Poimâine, 26 Martie, Marţi

    Timp Temperatura Precipitaţii Vânt Presiune Umiditate
    00:00 +6°C° 0 mm 1 m/s 679 mmHg 91%
    01:00 +6°C° 0 mm 1 m/s 679 mmHg 91%
    02:00 +5°C° 0 mm 1 m/s 679 mmHg 90%
    03:00 +5°C° 0 mm 1 m/s 679 mmHg 89%
    04:00 +5°C° 0 mm 1 m/s 678 mmHg 88%
    05:00 +6°C° 0 mm 1 m/s 679 mmHg 83%
    06:00 +7°C° 0 mm 1 m/s 679 mmHg 77%
    07:00 +8°C° 0 mm 1 m/s 680 mmHg 72%
    08:00 +10°C° 0 mm 1 m/s 680 mmHg 64%
    09:00 +12°C° 0 mm 1 m/s 681 mmHg 56%
    10:00 +14°C° 0 mm 2 m/s 681 mmHg 48%
    11:00 +15°C° 0 mm 2 m/s 681 mmHg 48%
    12:00 +15°C° 0 mm 2 m/s 681 mmHg 48%
    13:00 +14°C° 0 mm 3 m/s 681 mmHg 48%
    14:00 +14°C° 0.2 mm 3 m/s 681 mmHg 52%
    15:00 +13°C° 0.2 mm 3 m/s 681 mmHg 57%
    16:00 +13°C° 0.2 mm 2 m/s 681 mmHg 61%
    17:00 +10°C° 0.1 mm 2 m/s 681 mmHg 70%
    18:00 +9°C° 0.1 mm 1 m/s 681 mmHg 80%
    19:00 +7°C° 0.1 mm 1 m/s 681 mmHg 89%
    20:00 +7°C° 0 mm 1 m/s 682 mmHg 90%
    21:00 +7°C° 0 mm 1 m/s 682 mmHg 90%
    22:00 +6°C° 0 mm 1 m/s 682 mmHg 90%
    23:00 +6°C° 0 mm 1 m/s 682 mmHg 89%

    27 Martie, Miercuri

    Timp Temperatura Precipitaţii Vânt Presiune Umiditate
    00:00 +6°C° 0 mm 1 m/s 682 mmHg 88%
    01:00 +6°C° 0 mm 1 m/s 682 mmHg 88%
    02:00 +6°C° 0 mm 1 m/s 683 mmHg 87%
    03:00 +5°C° 0 mm 1 m/s 683 mmHg 86%
    04:00 +4°C° 0 mm 2 m/s 683 mmHg 85%
    05:00 +5°C° 0 mm 2 m/s 683 mmHg 82%
    06:00 +6°C° 0 mm 2 m/s 684 mmHg 79%
    07:00 +7°C° 0 mm 2 m/s 684 mmHg 77%
    08:00 +9°C° 0 mm 2 m/s 685 mmHg 68%
    09:00 +12°C° 0 mm 2 m/s 686 mmHg 59%
    10:00 +15°C° 0 mm 2 m/s 687 mmHg 51%
    11:00 +15°C° 0.1 mm 2 m/s 687 mmHg 52%
    12:00 +15°C° 0.1 mm 2 m/s 687 mmHg 54%
    13:00 +15°C° 0.1 mm 2 m/s 686 mmHg 56%
    14:00 +13°C° 0.8 mm 2 m/s 686 mmHg 64%
    15:00 +12°C° 0.8 mm 2 m/s 686 mmHg 72%
    16:00 +11°C° 0.8 mm 1 m/s 686 mmHg 79%
    17:00 +10°C° 0.6 mm 1 m/s 686 mmHg 84%
    18:00 +9°C° 0.6 mm 1 m/s 686 mmHg 88%
    19:00 +8°C° 0.6 mm 1 m/s 685 mmHg 92%
    20:00 +8°C° 0.2 mm 1 m/s 685 mmHg 92%
    21:00 +6°C° 0.2 mm 2 m/s 685 mmHg 92%
    22:00 +6°C° 0.2 mm 2 m/s 685 mmHg 92%
    23:00 +6°C° 0.5 mm 2 m/s 685 mmHg 92%

    28 Martie, Joi

    Timp Temperatura Precipitaţii Vânt Presiune Umiditate
    00:00 +6°C° 0.5 mm 2 m/s 685 mmHg 92%
    01:00 +6°C° 0.5 mm 2 m/s 685 mmHg 92%
    02:00 +6°C° 0.5 mm 2 m/s 684 mmHg 92%
    03:00 +5°C° 0.5 mm 2 m/s 684 mmHg 92%
    04:00 +5°C° 0.5 mm 2 m/s 683 mmHg 92%
    05:00 +5°C° 0.4 mm 2 m/s 684 mmHg 90%
    06:00 +5°C° 0.4 mm 2 m/s 684 mmHg 89%
    07:00 +5°C° 0.4 mm 2 m/s 684 mmHg 87%
    08:00 +5°C° 0.1 mm 3 m/s 684 mmHg 81%
    09:00 +6°C° 0.1 mm 4 m/s 684 mmHg 74%
    10:00 +6°C° 0.1 mm 4 m/s 685 mmHg 68%
    11:00 +7°C° 0.1 mm 4 m/s 684 mmHg 65%
    12:00 +7°C° 0.1 mm 4 m/s 684 mmHg 61%
    13:00 +8°C° 0.1 mm 4 m/s 684 mmHg 58%
    14:00 +7°C° 0 mm 4 m/s 684 mmHg 58%
    15:00 +7°C° 0 mm 4 m/s 684 mmHg 59%
    16:00 +6°C° 0 mm 4 m/s 684 mmHg 59%
    17:00 +5°C° 0 mm 4 m/s 684 mmHg 64%
    18:00 +4°C° 0 mm 3 m/s 684 mmHg 68%
    19:00 +3°C° 0 mm 3 m/s 684 mmHg 72%
    20:00 +3°C° 0 mm 2 m/s 684 mmHg 74%
    21:00 +3°C° 0 mm 2 m/s 684 mmHg 76%
    22:00 +3°C° 0 mm 2 m/s 685 mmHg 78%
    23:00 +3°C° 0 mm 2 m/s 684 mmHg 80%

    29 Martie, Vineri

    Timp Temperatura Precipitaţii Vânt Presiune Umiditate
    00:00 +2°C° 0 mm 2 m/s 684 mmHg 82%
    01:00 +2°C° 0 mm 2 m/s 684 mmHg 85%
    02:00 +2°C° 0 mm 2 m/s 684 mmHg 85%
    03:00 +1°C° 0 mm 2 m/s 684 mmHg 85%
    04:00 +1°C° 0 mm 2 m/s 684 mmHg 86%
    05:00 +2°C° 0 mm 2 m/s 685 mmHg 79%
    06:00 +2°C° 0 mm 2 m/s 685 mmHg 73%
    07:00 +3°C° 0 mm 2 m/s 686 mmHg 66%
    08:00 +5°C° 0 mm 2 m/s 686 mmHg 57%
    09:00 +7°C° 0 mm 2 m/s 687 mmHg 48%
    10:00 +9°C° 0 mm 2 m/s 687 mmHg 40%
    11:00 +10°C° 0 mm 2 m/s 687 mmHg 39%
    12:00 +12°C° 0 mm 2 m/s 687 mmHg 38%
    13:00 +13°C° 0 mm 2 m/s 687 mmHg 38%
    14:00 +12°C° 0 mm 2 m/s 687 mmHg 40%
    15:00 +10°C° 0 mm 2 m/s 687 mmHg 41%
    16:00 +10°C° 0 mm 2 m/s 687 mmHg 43%
    17:00 +8°C° 0 mm 2 m/s 686 mmHg 50%
    18:00 +5°C° 0 mm 2 m/s 686 mmHg 56%
    19:00 +3°C° 0 mm 2 m/s 686 mmHg 63%
    20:00 +3°C° 0 mm 2 m/s 686 mmHg 65%
    21:00 +2°C° 0 mm 2 m/s 686 mmHg 67%
    22:00 +1°C° 0 mm 2 m/s 686 mmHg 69%
    23:00 +1°C° 0 mm 2 m/s 686 mmHg 71%
    Arată mai mult